ADZ22 UHMP-UHMA

Flight info

Callsign ADZ22
Flight time N/A
Altitude 17000
Route ARBOM W80 GERBI
Aircraft AN24/M-VGDW/C

Departure

Time 2026-04-18 16:42
Airport Pevek Airport (UHMP)

Arrival

Time N/A
Airport Ugolny Yuri Ryktheu Airport (UHMA)
Time Latitude Longitude Altitude Speed Heading
2026-04-18 16:15 69.78793 170.60144 10 ft 0 kts 308°
2026-04-18 16:30 69.78793 170.60143 10 ft 0 kts 310°
2026-04-18 16:30 69.78802 170.60112 10 ft 9 kts 311°
2026-04-18 16:30 69.78822 170.60042 10 ft 0 kts 309°
2026-04-18 16:31 69.78840 170.59950 10 ft 4 kts 284°
2026-04-18 16:31 69.78835 170.59772 10 ft 9 kts 253°
2026-04-18 16:31 69.78825 170.59691 10 ft 0 kts 247°
2026-04-18 16:31 69.78825 170.59689 10 ft 0 kts 246°
2026-04-18 16:33 69.78823 170.59679 10 ft 7 kts 248°
2026-04-18 16:33 69.78790 170.59419 10 ft 10 kts 212°
2026-04-18 16:33 69.78737 170.59398 10 ft 13 kts 174°
2026-04-18 16:34 69.78584 170.59497 10 ft 30 kts 167°
2026-04-18 16:34 69.78332 170.59663 10 ft 42 kts 166°
2026-04-18 16:34 69.78097 170.59824 10 ft 26 kts 167°
2026-04-18 16:34 69.77940 170.59930 10 ft 27 kts 166°
2026-04-18 16:35 69.77743 170.60068 10 ft 24 kts 168°
2026-04-18 16:35 69.77619 170.60146 10 ft 12 kts 168°
2026-04-18 16:35 69.77531 170.60204 10 ft 19 kts 168°
2026-04-18 16:35 69.77403 170.60283 10 ft 13 kts 161°
2026-04-18 16:36 69.77351 170.60338 10 ft 3 kts 157°
2026-04-18 16:36 69.77300 170.60445 10 ft 7 kts 128°
2026-04-18 16:36 69.77271 170.60492 10 ft 13 kts 170°
2026-04-18 16:36 69.77219 170.60477 10 ft 5 kts 215°
2026-04-18 16:37 69.77210 170.60451 10 ft 1 kts 242°
2026-04-18 16:37 69.77222 170.60141 10 ft 12 kts 306°
2026-04-18 16:37 69.77243 170.60101 10 ft 12 kts 345°
2026-04-18 16:37 69.77375 170.60188 10 ft 21 kts 28°
2026-04-18 16:38 69.77418 170.60214 10 ft 0 kts 302°
2026-04-18 16:38 69.77426 170.60136 10 ft 10 kts 274°
2026-04-18 16:38 69.77400 170.60057 10 ft 1 kts 144°
2026-04-18 16:38 69.77394 170.60075 10 ft 7 kts 139°
2026-04-18 16:39 69.77312 170.60277 10 ft 11 kts 140°
2026-04-18 16:39 69.77291 170.60332 10 ft 10 kts 123°
2026-04-18 16:39 69.77290 170.60411 10 ft 0 kts 327°
2026-04-18 16:39 69.77290 170.60410 10 ft 1 kts 329°
2026-04-18 16:40 69.77306 170.60388 10 ft 0 kts 338°
2026-04-18 16:40 69.77312 170.60379 10 ft 7 kts 337°
2026-04-18 16:40 69.77323 170.60368 10 ft 0 kts 342°
2026-04-18 16:41 69.77954 170.59929 10 ft 109 kts 346°
2026-04-18 16:41 69.78793 170.59174 134 ft 136 kts 343°
2026-04-18 16:41 69.79728 170.58011 213 ft 163 kts 339°
2026-04-18 16:42 69.80843 170.56467 292 ft 187 kts 339°
2026-04-18 16:42 69.82059 170.54774 389 ft 200 kts 339°
2026-04-18 16:42 69.83322 170.53036 512 ft 205 kts 339°
2026-04-18 16:42 69.84613 170.51277 756 ft 204 kts 339°
2026-04-18 16:43 69.85897 170.49521 1062 ft 200 kts 339°
2026-04-18 16:43 69.87136 170.47819 1335 ft 199 kts 339°
2026-04-18 16:43 69.88389 170.46100 1599 ft 198 kts 339°
2026-04-18 16:43 69.89637 170.44391 1855 ft 198 kts 340°
2026-04-18 16:44 69.90875 170.42700 2101 ft 199 kts 340°
2026-04-18 16:44 69.92057 170.40533 2334 ft 205 kts 316°
2026-04-18 16:44 69.92646 170.36726 2499 ft 214 kts 276°
2026-04-18 16:44 69.92321 170.32538 2642 ft 217 kts 236°
2026-04-18 16:45 69.91215 170.29748 2775 ft 214 kts 198°
2026-04-18 16:45 69.89779 170.29430 2931 ft 206 kts 160°
2026-04-18 16:45 69.88530 170.31239 3168 ft 200 kts 142°
2026-04-18 16:45 69.87437 170.33742 3432 ft 197 kts 135°
2026-04-18 16:46 69.86481 170.36530 3684 ft 194 kts 128°
2026-04-18 16:46 69.85622 170.39552 3924 ft 194 kts 126°
2026-04-18 16:46 69.84775 170.42555 4148 ft 194 kts 127°
2026-04-18 16:46 69.83920 170.45557 4372 ft 194 kts 127°
2026-04-18 16:47 69.83048 170.48607 4599 ft 194 kts 127°
2026-04-18 16:47 69.82185 170.51613 4824 ft 194 kts 128°
2026-04-18 16:47 69.81318 170.54620 5048 ft 195 kts 128°
2026-04-18 16:47 69.80444 170.57617 5274 ft 195 kts 130°
2026-04-18 16:48 69.79455 170.60284 5514 ft 195 kts 142°
2026-04-18 16:48 69.78310 170.62294 5741 ft 196 kts 148°
2026-04-18 16:48 69.77135 170.64296 5960 ft 196 kts 145°
2026-04-18 16:48 69.75996 170.66444 6203 ft 195 kts 146°
2026-04-18 16:49 69.74849 170.68581 6471 ft 194 kts 146°
2026-04-18 16:49 69.73723 170.70680 6724 ft 193 kts 146°
2026-04-18 16:49 69.72607 170.72780 6970 ft 192 kts 146°
2026-04-18 16:49 69.71483 170.74913 7215 ft 192 kts 146°
2026-04-18 16:50 69.70380 170.77022 7452 ft 192 kts 146°
2026-04-18 16:50 69.69272 170.79153 7698 ft 192 kts 146°
2026-04-18 16:50 69.68165 170.81296 7963 ft 191 kts 146°
2026-04-18 16:50 69.67067 170.83434 8239 ft 189 kts 146°
2026-04-18 16:51 69.65997 170.85504 8528 ft 186 kts 149°
2026-04-18 16:51 69.64882 170.87360 8807 ft 185 kts 150°
2026-04-18 16:51 69.63759 170.89198 9064 ft 185 kts 150°
2026-04-18 16:51 69.62649 170.91037 9311 ft 185 kts 150°
2026-04-18 16:52 69.61541 170.92866 9552 ft 186 kts 150°
2026-04-18 16:52 69.60416 170.94696 9790 ft 186 kts 150°
2026-04-18 16:52 69.59282 170.96507 10025 ft 187 kts 150°
2026-04-18 16:52 69.58143 170.98299 10254 ft 188 kts 150°
2026-04-18 16:53 69.56997 171.00188 10491 ft 189 kts 146°
2026-04-18 16:53 69.55901 171.02190 10713 ft 190 kts 146°
2026-04-18 16:53 69.54772 171.04227 10930 ft 192 kts 146°
2026-04-18 16:53 69.53623 171.06270 11148 ft 194 kts 147°
2026-04-18 16:54 69.52493 171.08269 11342 ft 185 kts 146°
2026-04-18 16:54 69.51388 171.10219 11491 ft 191 kts 147°
2026-04-18 16:54 69.50227 171.12187 11672 ft 195 kts 150°
2026-04-18 16:54 69.49026 171.14027 11869 ft 197 kts 150°
2026-04-18 16:55 69.47809 171.15895 12076 ft 199 kts 150°
2026-04-18 16:55 69.46590 171.17770 12290 ft 200 kts 150°
2026-04-18 16:55 69.45362 171.19672 12510 ft 201 kts 150°
2026-04-18 16:55 69.44150 171.21555 12727 ft 201 kts 149°
2026-04-18 16:56 69.42920 171.23468 12946 ft 201 kts 150°
2026-04-18 16:56 69.41697 171.25365 13162 ft 201 kts 150°
2026-04-18 16:56 69.40468 171.27266 13375 ft 201 kts 150°
2026-04-18 16:56 69.39250 171.29143 13582 ft 201 kts 150°
2026-04-18 16:57 69.38032 171.31104 13794 ft 200 kts 147°
2026-04-18 16:57 69.36850 171.33202 13999 ft 200 kts 147°
2026-04-18 16:57 69.35681 171.35257 14190 ft 200 kts 147°
2026-04-18 16:57 69.34487 171.37335 14384 ft 200 kts 147°
2026-04-18 16:58 69.33312 171.39369 14570 ft 200 kts 147°
2026-04-18 16:58 69.32111 171.41446 14758 ft 200 kts 147°
2026-04-18 16:58 69.30926 171.43491 14940 ft 200 kts 147°
2026-04-18 16:58 69.29747 171.45511 15118 ft 200 kts 148°
2026-04-18 16:59 69.28548 171.47441 15288 ft 198 kts 148°
2026-04-18 16:59 69.27351 171.49359 15446 ft 198 kts 148°
2026-04-18 16:59 69.26147 171.51296 15608 ft 199 kts 148°
2026-04-18 16:59 69.24944 171.53235 15769 ft 199 kts 148°
2026-04-18 17:00 69.23753 171.55158 15927 ft 199 kts 148°
2026-04-18 17:00 69.22558 171.57095 16085 ft 199 kts 147°
2026-04-18 17:00 69.21358 171.59045 16244 ft 199 kts 147°
2026-04-18 17:00 69.20158 171.61000 16401 ft 199 kts 147°
2026-04-18 17:01 69.18954 171.62965 16557 ft 199 kts 147°
2026-04-18 17:01 69.17761 171.64918 16708 ft 199 kts 147°
2026-04-18 17:01 69.16559 171.66899 16814 ft 202 kts 148°
2026-04-18 17:01 69.15343 171.68926 16921 ft 204 kts 148°
2026-04-18 17:02 69.14114 171.70978 17039 ft 206 kts 148°
2026-04-18 17:02 69.12886 171.73025 17166 ft 207 kts 148°
2026-04-18 17:02 69.11645 171.75092 17298 ft 207 kts 148°
2026-04-18 17:02 69.10412 171.77139 17432 ft 208 kts 148°
2026-04-18 17:03 69.09173 171.79196 17569 ft 208 kts 148°
2026-04-18 17:03 69.07929 171.81255 17705 ft 208 kts 148°
2026-04-18 17:03 69.06671 171.83334 17843 ft 208 kts 148°
2026-04-18 17:03 69.05423 171.85396 17962 ft 210 kts 148°
2026-04-18 17:04 69.04163 171.87476 18029 ft 212 kts 148°
2026-04-18 17:04 69.02897 171.89560 18034 ft 214 kts 148°
2026-04-18 17:04 69.01591 171.91711 17991 ft 219 kts 148°
2026-04-18 17:04 69.00287 171.93861 17931 ft 223 kts 148°
2026-04-18 17:05 68.98926 171.96101 17887 ft 227 kts 148°
2026-04-18 17:05 68.97555 171.98358 17819 ft 231 kts 148°
2026-04-18 17:05 68.96162 172.00648 17746 ft 235 kts 148°
2026-04-18 17:05 68.94763 172.02951 17651 ft 239 kts 148°
2026-04-18 17:06 68.93317 172.05330 17579 ft 242 kts 148°
2026-04-18 17:06 68.91859 172.07722 17524 ft 244 kts 148°
2026-04-18 17:06 68.90385 172.10141 17480 ft 245 kts 148°
2026-04-18 17:06 68.88927 172.12520 17393 ft 248 kts 148°
2026-04-18 17:07 68.87416 172.14954 17275 ft 252 kts 148°
2026-04-18 17:07 68.85891 172.17397 17207 ft 253 kts 148°
2026-04-18 17:07 68.84383 172.19797 17253 ft 249 kts 148°
2026-04-18 17:07 68.82879 172.22179 17258 ft 248 kts 148°
2026-04-18 17:08 68.81386 172.24528 17262 ft 246 kts 148°
2026-04-18 17:08 68.79906 172.26843 17264 ft 245 kts 148°
2026-04-18 17:08 68.78433 172.29135 17267 ft 244 kts 149°
2026-04-18 17:08 68.76946 172.31435 17260 ft 244 kts 149°
2026-04-18 17:09 68.75479 172.33690 17266 ft 243 kts 149°
2026-04-18 17:09 68.73998 172.35953 17264 ft 242 kts 149°
2026-04-18 17:09 68.72527 172.38185 17259 ft 242 kts 149°
2026-04-18 17:09 68.71064 172.40395 17265 ft 241 kts 149°
2026-04-18 17:10 68.69574 172.42630 17263 ft 241 kts 149°
2026-04-18 17:10 68.68102 172.44826 17256 ft 241 kts 149°
2026-04-18 17:10 68.66636 172.47000 17247 ft 241 kts 149°
2026-04-18 17:10 68.65179 172.49202 17245 ft 240 kts 147°
2026-04-18 17:11 68.63749 172.51614 17230 ft 241 kts 147°
2026-04-18 17:11 68.62316 172.54009 17228 ft 240 kts 147°
2026-04-18 17:11 68.60889 172.56361 17232 ft 240 kts 147°
2026-04-18 17:11 68.59463 172.58705 17234 ft 240 kts 147°
2026-04-18 17:12 68.58034 172.61057 17235 ft 240 kts 147°
2026-04-18 17:12 68.56609 172.63400 17230 ft 240 kts 147°
2026-04-18 17:12 68.55177 172.65752 17234 ft 239 kts 148°
2026-04-18 17:12 68.53754 172.68103 17224 ft 240 kts 147°
2026-04-18 17:13 68.52346 172.70436 17230 ft 239 kts 148°
2026-04-18 17:13 68.50902 172.72765 17243 ft 239 kts 149°
2026-04-18 17:13 68.49464 172.74925 17227 ft 240 kts 149°
2026-04-18 17:13 68.47998 172.77141 17236 ft 239 kts 149°
2026-04-18 17:14 68.46545 172.79356 17233 ft 240 kts 149°
2026-04-18 17:14 68.45085 172.81587 17237 ft 241 kts 149°
2026-04-18 17:14 68.43629 172.83806 17235 ft 242 kts 149°
2026-04-18 17:14 68.42165 172.86011 17238 ft 242 kts 149°
2026-04-18 17:15 68.40678 172.88229 17232 ft 243 kts 149°
2026-04-18 17:15 68.39188 172.90430 17236 ft 243 kts 149°
2026-04-18 17:15 68.37694 172.92610 17239 ft 244 kts 149°
2026-04-18 17:15 68.36206 172.94765 17232 ft 245 kts 149°
2026-04-18 17:16 68.34705 172.96918 17234 ft 245 kts 149°
2026-04-18 17:16 68.33203 172.99052 17238 ft 246 kts 149°
2026-04-18 17:16 68.31684 173.01195 17232 ft 247 kts 149°
2026-04-18 17:16 68.30151 173.03337 17232 ft 247 kts 149°
2026-04-18 17:17 68.28658 173.05611 17249 ft 246 kts 146°
2026-04-18 17:17 68.27178 173.07987 17232 ft 248 kts 146°
2026-04-18 17:17 68.25700 173.10324 17236 ft 248 kts 146°
2026-04-18 17:17 68.24215 173.12657 17237 ft 248 kts 146°
2026-04-18 17:18 68.22714 173.15008 17233 ft 249 kts 146°
2026-04-18 17:18 68.21220 173.17346 17238 ft 249 kts 146°
2026-04-18 17:18 68.19721 173.19691 17235 ft 250 kts 146°
2026-04-18 17:18 68.18223 173.22034 17233 ft 250 kts 146°
2026-04-18 17:19 68.16734 173.24356 17234 ft 250 kts 146°
2026-04-18 17:19 68.15230 173.26700 17237 ft 250 kts 146°
2026-04-18 17:19 68.13707 173.29069 17232 ft 251 kts 146°
2026-04-18 17:19 68.12210 173.31396 17232 ft 251 kts 146°
2026-04-18 17:20 68.10695 173.33748 17238 ft 251 kts 146°
2026-04-18 17:20 68.09203 173.36061 17233 ft 251 kts 146°
2026-04-18 17:20 68.07678 173.38419 17234 ft 251 kts 146°
2026-04-18 17:20 68.06178 173.40738 17239 ft 251 kts 146°
2026-04-18 17:21 68.04677 173.43054 17233 ft 251 kts 146°
2026-04-18 17:21 68.03148 173.45412 17231 ft 252 kts 146°
2026-04-18 17:21 68.01646 173.47723 17239 ft 251 kts 146°
2026-04-18 17:21 68.00112 173.50081 17234 ft 252 kts 146°
2026-04-18 17:22 67.98610 173.52387 17233 ft 252 kts 146°
2026-04-18 17:22 67.97096 173.54706 17237 ft 252 kts 146°
2026-04-18 17:22 67.95574 173.57036 17234 ft 252 kts 146°
2026-04-18 17:22 67.94055 173.59357 17232 ft 252 kts 146°
2026-04-18 17:23 67.92548 173.61658 17239 ft 252 kts 146°
2026-04-18 17:23 67.91011 173.63991 17234 ft 252 kts 147°
2026-04-18 17:23 67.89465 173.66168 17220 ft 253 kts 149°
2026-04-18 17:23 67.87905 173.68355 17175 ft 255 kts 149°
2026-04-18 17:24 67.86339 173.70557 17212 ft 253 kts 148°
2026-04-18 17:24 67.84795 173.72731 17229 ft 252 kts 148°
2026-04-18 17:24 67.83247 173.74910 17232 ft 252 kts 149°
2026-04-18 17:24 67.81705 173.77077 17231 ft 252 kts 149°
2026-04-18 17:25 67.80163 173.79239 17237 ft 252 kts 149°
2026-04-18 17:25 67.78613 173.81409 17232 ft 252 kts 149°
2026-04-18 17:25 67.77062 173.83577 17234 ft 252 kts 149°
2026-04-18 17:25 67.75522 173.85725 17240 ft 252 kts 149°
2026-04-18 17:26 67.73978 173.87877 17233 ft 252 kts 149°
2026-04-18 17:26 67.72432 173.90030 17235 ft 252 kts 149°
2026-04-18 17:26 67.70877 173.92192 17238 ft 252 kts 149°
2026-04-18 17:26 67.69312 173.94365 17232 ft 252 kts 149°
2026-04-18 17:27 67.67775 173.96497 17234 ft 252 kts 149°
2026-04-18 17:27 67.66236 173.98689 17245 ft 251 kts 146°
2026-04-18 17:27 67.63233 174.03389 17233 ft 252 kts 146°
2026-04-18 17:28 67.61720 174.05713 17232 ft 252 kts 146°
2026-04-18 17:28 67.60210 174.08029 17238 ft 252 kts 146°
2026-04-18 17:28 67.58694 174.10353 17236 ft 252 kts 146°
2026-04-18 17:28 67.57195 174.12650 17233 ft 252 kts 146°
2026-04-18 17:29 67.55688 174.14958 17236 ft 252 kts 146°
2026-04-18 17:29 67.54176 174.17268 17237 ft 252 kts 146°
2026-04-18 17:29 67.52654 174.19591 17232 ft 252 kts 146°
2026-04-18 17:29 67.51135 174.21905 17236 ft 252 kts 146°
2026-04-18 17:30 67.49622 174.24208 17237 ft 252 kts 146°
2026-04-18 17:30 67.48119 174.26491 17233 ft 252 kts 146°
2026-04-18 17:30 67.46600 174.28795 17232 ft 252 kts 146°
2026-04-18 17:30 67.45096 174.31076 17239 ft 252 kts 146°
2026-04-18 17:31 67.43571 174.33383 17233 ft 252 kts 146°
2026-04-18 17:31 67.42058 174.35669 17231 ft 252 kts 146°
2026-04-18 17:31 67.40533 174.37970 17238 ft 252 kts 146°
2026-04-18 17:31 67.39027 174.40239 17232 ft 252 kts 146°
2026-04-18 17:32 67.37514 174.42517 17234 ft 252 kts 146°
2026-04-18 17:32 67.36002 174.44788 17240 ft 252 kts 146°
2026-04-18 17:32 67.34473 174.47082 17233 ft 252 kts 146°
2026-04-18 17:32 67.32953 174.49359 17235 ft 252 kts 146°
2026-04-18 17:33 67.31432 174.51634 17239 ft 252 kts 146°
2026-04-18 17:33 67.28413 174.56142 17236 ft 252 kts 146°
2026-04-18 17:33 67.26884 174.58421 17237 ft 252 kts 146°
2026-04-18 17:34 67.25367 174.60680 17231 ft 253 kts 146°
2026-04-18 17:34 67.23847 174.62938 17237 ft 252 kts 146°
2026-04-18 17:34 67.22312 174.65216 17238 ft 252 kts 147°
2026-04-18 17:34 67.20767 174.67362 17237 ft 253 kts 150°
2026-04-18 17:35 67.19196 174.69345 17225 ft 254 kts 150°
2026-04-18 17:35 67.17600 174.71387 17237 ft 254 kts 150°
2026-04-18 17:35 67.16044 174.73395 17233 ft 254 kts 150°
2026-04-18 17:35 67.14444 174.75455 17232 ft 254 kts 150°
2026-04-18 17:36 67.12885 174.77455 17239 ft 254 kts 150°
2026-04-18 17:36 67.11293 174.79495 17234 ft 254 kts 150°
2026-04-18 17:36 67.09716 174.81512 17232 ft 254 kts 150°
2026-04-18 17:36 67.08124 174.83545 17239 ft 254 kts 150°
2026-04-18 17:37 67.06543 174.85564 17235 ft 254 kts 150°
2026-04-18 17:37 67.04968 174.87569 17230 ft 255 kts 150°
2026-04-18 17:37 67.03389 174.89578 17238 ft 254 kts 150°
2026-04-18 17:37 67.01789 174.91611 17236 ft 254 kts 150°
2026-04-18 17:38 67.00225 174.93596 17233 ft 255 kts 150°
2026-04-18 17:38 66.98622 174.95627 17236 ft 255 kts 150°
2026-04-18 17:38 66.97044 174.97624 17239 ft 254 kts 150°
2026-04-18 17:38 66.95461 174.99631 17234 ft 255 kts 150°
2026-04-18 17:39 66.93887 175.01628 17234 ft 255 kts 150°
2026-04-18 17:39 66.92299 175.03648 17237 ft 254 kts 150°
2026-04-18 17:39 66.90720 175.05664 17237 ft 254 kts 150°
2026-04-18 17:39 66.89142 175.07680 17201 ft 256 kts 150°
2026-04-18 17:40 66.87543 175.09705 17212 ft 254 kts 150°
2026-04-18 17:40 66.86004 175.11768 17252 ft 252 kts 148°
2026-04-18 17:40 66.84481 175.13951 17235 ft 252 kts 148°
2026-04-18 17:40 66.82931 175.16136 17237 ft 252 kts 148°
2026-04-18 17:41 66.81403 175.18283 17235 ft 252 kts 148°
2026-04-18 17:41 66.79871 175.20442 17230 ft 252 kts 148°
2026-04-18 17:41 66.78346 175.22598 17237 ft 251 kts 148°
2026-04-18 17:41 66.76825 175.24754 17234 ft 251 kts 148°
2026-04-18 17:42 66.75299 175.26916 17230 ft 251 kts 148°
2026-04-18 17:42 66.73789 175.29053 17237 ft 251 kts 148°
2026-04-18 17:42 66.72253 175.31218 17235 ft 251 kts 148°
2026-04-18 17:42 66.70750 175.33334 17232 ft 251 kts 148°
2026-04-18 17:43 66.69208 175.35506 17236 ft 251 kts 148°
2026-04-18 17:43 66.67699 175.37624 17235 ft 251 kts 148°
2026-04-18 17:43 66.66164 175.39780 17229 ft 251 kts 148°
2026-04-18 17:43 66.64658 175.41888 17237 ft 251 kts 148°
2026-04-18 17:44 66.63126 175.44032 17236 ft 250 kts 148°
2026-04-18 17:44 66.61617 175.46140 17233 ft 251 kts 148°
2026-04-18 17:44 66.60093 175.48268 17237 ft 251 kts 148°
2026-04-18 17:44 66.58569 175.50392 17236 ft 251 kts 148°
2026-04-18 17:45 66.57049 175.52508 17230 ft 251 kts 148°
2026-04-18 17:45 66.55521 175.54631 17237 ft 250 kts 148°
2026-04-18 17:45 66.53993 175.56752 17236 ft 250 kts 148°
2026-04-18 17:45 66.52474 175.58859 17233 ft 251 kts 148°
2026-04-18 17:46 66.50948 175.60971 17239 ft 250 kts 148°
2026-04-18 17:46 66.49429 175.63074 17235 ft 251 kts 148°
2026-04-18 17:46 66.47900 175.65184 17230 ft 251 kts 149°
2026-04-18 17:46 66.46394 175.67271 17235 ft 251 kts 149°
2026-04-18 17:47 66.44864 175.69406 17230 ft 251 kts 149°
2026-04-18 17:47 66.43343 175.71527 17236 ft 251 kts 149°
2026-04-18 17:47 66.41798 175.73541 17245 ft 251 kts 152°
2026-04-18 17:47 66.40233 175.75447 17228 ft 252 kts 152°
2026-04-18 17:48 66.38664 175.77380 17236 ft 251 kts 151°
2026-04-18 17:48 66.37104 175.79318 17236 ft 251 kts 151°
2026-04-18 17:48 66.35542 175.81258 17233 ft 252 kts 151°
2026-04-18 17:48 66.33981 175.83189 17237 ft 251 kts 152°
2026-04-18 17:49 66.32417 175.85123 17234 ft 252 kts 152°
2026-04-18 17:49 66.30836 175.87073 17231 ft 252 kts 152°
2026-04-18 17:49 66.29274 175.88998 17238 ft 252 kts 152°
2026-04-18 17:49 66.27706 175.90927 17237 ft 252 kts 152°
2026-04-18 17:50 66.26141 175.92851 17234 ft 252 kts 152°
2026-04-18 17:50 66.24578 175.94769 17236 ft 252 kts 152°
2026-04-18 17:50 66.23015 175.96686 17235 ft 252 kts 152°
2026-04-18 17:50 66.21449 175.98604 17231 ft 252 kts 151°
2026-04-18 17:51 66.19862 176.00543 17237 ft 252 kts 151°
2026-04-18 17:51 66.18309 176.02441 17237 ft 252 kts 151°
2026-04-18 17:51 66.16740 176.04355 17232 ft 252 kts 151°
2026-04-18 17:51 66.15175 176.06261 17236 ft 252 kts 151°
2026-04-18 17:52 66.13599 176.08179 17234 ft 252 kts 151°
2026-04-18 17:52 66.12024 176.10092 17230 ft 252 kts 151°
2026-04-18 17:52 66.10457 176.11995 17237 ft 252 kts 151°
2026-04-18 17:52 66.08879 176.13907 17239 ft 252 kts 151°
2026-04-18 17:53 66.07319 176.15794 17233 ft 252 kts 151°
2026-04-18 17:53 66.05741 176.17702 17238 ft 252 kts 151°
2026-04-18 17:53 66.04170 176.19598 17236 ft 252 kts 151°
2026-04-18 17:53 66.02594 176.21500 17230 ft 252 kts 151°
2026-04-18 17:54 66.01061 176.23503 17250 ft 251 kts 148°
2026-04-18 17:54 65.99551 176.25653 17225 ft 252 kts 148°
2026-04-18 17:54 65.98027 176.27803 17235 ft 251 kts 148°
2026-04-18 17:54 65.96499 176.29935 17235 ft 252 kts 148°
2026-04-18 17:55 65.95001 176.32014 17233 ft 252 kts 148°
2026-04-18 17:55 65.93461 176.34149 17238 ft 251 kts 148°
2026-04-18 17:55 65.91949 176.36243 17232 ft 252 kts 148°
2026-04-18 17:55 65.90431 176.38344 17234 ft 252 kts 148°
2026-04-18 17:56 65.88897 176.40457 17202 ft 253 kts 148°
2026-04-18 17:56 65.87364 176.42540 17231 ft 251 kts 148°
2026-04-18 17:56 65.84319 176.46642 17239 ft 251 kts 148°
2026-04-18 17:57 65.82776 176.48706 17232 ft 252 kts 148°
2026-04-18 17:57 65.79728 176.52765 17233 ft 252 kts 148°
2026-04-18 17:58 65.76650 176.56831 17239 ft 251 kts 148°
2026-04-18 17:58 65.73586 176.60849 17236 ft 252 kts 149°
2026-04-18 17:59 65.70381 176.64368 17220 ft 253 kts 154°
2026-04-18 17:59 65.68757 176.66048 17225 ft 253 kts 155°
2026-04-18 17:59 65.65541 176.69409 17237 ft 252 kts 154°
2026-04-18 18:00 65.63927 176.71121 17231 ft 253 kts 154°
2026-04-18 18:00 65.60737 176.74548 17237 ft 253 kts 154°
2026-04-18 18:01 65.57526 176.77995 17232 ft 253 kts 154°
2026-04-18 18:01 65.54346 176.81390 17152 ft 239 kts 154°
2026-04-18 18:02 65.51427 176.84470 16666 ft 224 kts 154°
2026-04-18 18:02 65.48642 176.87395 16066 ft 216 kts 154°
2026-04-18 18:02 65.47279 176.88825 15748 ft 213 kts 154°
2026-04-18 18:03 65.44585 176.91649 15094 ft 209 kts 154°
2026-04-18 18:03 65.43259 176.93036 14766 ft 208 kts 154°
2026-04-18 18:04 65.40642 176.95772 14116 ft 206 kts 154°
2026-04-18 18:04 65.39330 176.97141 13790 ft 205 kts 154°
2026-04-18 18:04 65.36738 176.99847 13153 ft 203 kts 154°
2026-04-18 18:05 65.34154 177.02544 12524 ft 202 kts 154°
2026-04-18 18:05 65.32877 177.03874 12216 ft 201 kts 154°
2026-04-18 18:05 65.31606 177.05199 11911 ft 200 kts 154°
2026-04-18 18:06 65.29060 177.07843 11305 ft 198 kts 154°
2026-04-18 18:06 65.27799 177.09140 11005 ft 197 kts 154°
2026-04-18 18:06 65.26549 177.10419 10709 ft 197 kts 154°
2026-04-18 18:07 65.25307 177.11679 10417 ft 196 kts 154°